Location: Bottom School (historical)
(37.9078°N, 89.3593°W)
Time: 10:16:37
(UTC+00:00)

deb Kosmos-2227 - Visible Passes

Search period start: 08 December 2023 00:00
Search period end: 18 December 2023 00:00
Orbit: 571 x 683 km, 71.1° (Epoch: 07 December)

Date Brightness Start Highest point End Pass type
(mag) Time Alt. Az. Time Alt. Az. Time Alt. Az.
08 Dec 8.8 11:12:58 10° N 11:16:35 27° ENE 11:20:12 10° ESE visible
09 Dec 7.3 11:33:02 13° NNW 11:36:40 63° ENE 11:40:51 10° SSE visible
10 Dec 9.7 10:15:57 12° NE 10:16:56 13° NE 10:18:57 10° E visible
10 Dec 7.1 11:53:18 15° NW 11:56:35 52° WSW 12:00:41 10° S visible
11 Dec 8.7 10:36:17 25° NE 10:37:10 27° ENE 10:40:48 10° ESE visible
11 Dec 8.2 12:13:39 12° WNW 12:16:21 22° WSW 12:19:37 10° SSW visible
12 Dec 8.9 00:42:34 10° S 00:44:08 20° SSE 00:44:08 20° SSE visible
12 Dec 7.2 10:56:41 56° NNE 10:57:14 63° ENE 11:01:26 10° SSE visible
13 Dec 8.3 01:02:08 10° SSW 01:04:42 34° SSW 01:04:42 34° SSW visible
13 Dec 7.0 11:17:09 52° WSW 11:17:09 52° WSW 11:21:16 10° S visible
13 Dec 8.6 23:44:40 10° SE 23:47:34 17° ESE 23:47:51 17° E visible
14 Dec 8.8 01:22:27 10° SW 01:25:13 30° WSW 01:25:13 30° WSW visible
14 Dec 9.7 10:00:18 16° ESE 10:00:18 16° ESE 10:01:20 10° ESE visible
14 Dec 8.4 11:37:40 21° WSW 11:37:40 21° WSW 11:40:11 10° SSW visible
15 Dec 7.5 00:03:08 10° S 00:07:17 38° ESE 00:08:18 33° ENE visible
15 Dec 9.7 01:43:41 10° WSW 01:45:39 17° WNW 01:45:39 17° WNW visible
15 Dec 9.3 10:20:51 18° SE 10:20:51 18° SE 10:21:58 10° SSE visible
16 Dec 6.9 00:22:40 10° SSW 00:27:08 88° WNW 00:28:39 40° NNE visible
16 Dec 9.5 10:41:25 12° S 10:41:25 12° S 10:41:47 10° S visible
16 Dec 8.7 23:05:12 10° SE 23:08:04 17° ESE 23:10:53 10° ENE visible
17 Dec 8.3 00:42:58 10° SW 00:47:06 38° WNW 00:48:56 25° NNW visible
17 Dec 7.6 23:23:39 10° S 23:27:46 38° ESE 23:31:47 10° NE visible
